Time,TemperatureF,DewpointF,PressureIn,WindDirection,WindDirectionDegrees,WindSpeedMPH,WindSpeedGustMPH,Humidity,HourlyPrecipIn,Conditions,Clouds,dailyrainin,SoftwareType,DateUTC
2013-04-02 00:03:00,50.3,46.0,30.16,South,180,1.6,4.4,85,0.00,,,0.00,Rainwise IP-100,2013-04-02 07:03:00,
2013-04-02 00:08:00,50.2,46.0,30.16,South,180,1.2,3.7,85,0.00,,,0.00,Rainwise IP-100,2013-04-02 07:08:00,
2013-04-02 00:13:00,50.1,46.0,30.16,SW,225,1.6,3.5,85,0.00,,,0.00,Rainwise IP-100,2013-04-02 07:13:00,
2013-04-02 00:18:00,50.1,46.0,30.16,SSW,202,0.0,2.8,85,0.00,,,0.00,Rainwise IP-100,2013-04-02 07:18:00,
2013-04-02 00:23:00,50.0,46.0,30.16,SSW,202,1.2,2.8,85,0.00,,,0.00,Rainwise IP-100,2013-04-02 07:23:00,
2013-04-02 00:28:00,50.0,46.0,30.16,SSW,202,0.0,3.5,86,0.00,,,0.00,Rainwise IP-100,2013-04-02 07:28:00,
2013-04-02 00:33:00,50.1,46.0,30.16,NE,45,0.0,3.0,86,0.00,,,0.00,Rainwise IP-100,2013-04-02 07:33:00,
2013-04-02 00:38:00,50.1,46.0,30.16,SSW,202,3.0,3.5,86,0.00,,,0.00,Rainwise IP-100,2013-04-02 07:38:00,
2013-04-02 00:43:00,50.1,46.0,30.16,South,180,1.9,3.0,86,0.00,,,0.00,Rainwise IP-100,2013-04-02 07:43:00,
2013-04-02 00:48:00,50.2,46.0,30.16,South,180,1.4,4.4,85,0.00,,,0.00,Rainwise IP-100,2013-04-02 07:48:00,
2013-04-02 00:53:00,50.2,46.0,30.17,South,180,0.0,3.0,85,0.00,,,0.00,Rainwise IP-100,2013-04-02 07:53:00,
2013-04-02 00:58:00,50.3,46.0,30.17,WSW,247,0.0,2.8,85,0.00,,,0.00,Rainwise IP-100,2013-04-02 07:58:00,
2013-04-02 01:03:00,50.3,46.0,30.17,SW,225,1.9,2.3,85,0.00,,,0.00,Rainwise IP-100,2013-04-02 08:03:00,
2013-04-02 01:08:00,50.3,46.0,30.17,SW,225,2.6,2.8,85,0.00,,,0.00,Rainwise IP-100,2013-04-02 08:08:00,
2013-04-02 01:13:00,50.2,46.0,30.17,SW,225,1.6,3.3,85,0.00,,,0.00,Rainwise IP-100,2013-04-02 08:13:00,
2013-04-02 01:18:00,50.1,46.0,30.17,SW,225,0.0,3.7,85,0.00,,,0.00,Rainwise IP-100,2013-04-02 08:18:00,
2013-04-02 01:23:00,50.1,46.0,30.18,South,180,0.0,4.7,85,0.00,,,0.00,Rainwise IP-100,2013-04-02 08:23:00,
2013-04-02 01:28:00,50.0,46.0,30.18,South,180,1.4,2.1,85,0.00,,,0.00,Rainwise IP-100,2013-04-02 08:28:00,
2013-04-02 01:33:00,50.0,46.0,30.18,SSW,202,1.4,3.0,85,0.00,,,0.00,Rainwise IP-100,2013-04-02 08:33:00,
2013-04-02 01:38:00,50.0,46.0,30.18,SSW,202,1.9,3.5,85,0.00,,,0.00,Rainwise IP-100,2013-04-02 08:38:00,
2013-04-02 01:43:00,50.0,46.0,30.18,SSW,202,0.0,3.0,85,0.00,,,0.00,Rainwise IP-100,2013-04-02 08:43:00,
2013-04-02 01:48:00,50.0,46.0,30.18,SSW,202,0.0,3.3,85,0.00,,,0.00,Rainwise IP-100,2013-04-02 08:48:00,
2013-04-02 01:53:00,50.0,46.0,30.18,SW,225,0.0,2.8,85,0.00,,,0.00,Rainwise IP-100,2013-04-02 08:53:00,
2013-04-02 01:58:00,50.0,46.0,30.18,SW,225,1.2,1.2,85,0.00,,,0.00,Rainwise IP-100,2013-04-02 08:58:00,
2013-04-02 02:03:00,50.0,46.0,30.18,SSW,202,0.0,2.3,85,0.00,,,0.00,Rainwise IP-100,2013-04-02 09:03:00,
2013-04-02 02:08:00,50.0,46.0,30.18,SSW,202,0.0,3.3,85,0.00,,,0.00,Rainwise IP-100,2013-04-02 09:08:00,
2013-04-02 02:13:00,50.0,46.0,30.18,SSW,202,1.2,2.6,85,0.00,,,0.00,Rainwise IP-100,2013-04-02 09:13:00,
2013-04-02 02:18:00,50.0,46.0,30.18,SSW,202,0.0,2.8,85,0.00,,,0.00,Rainwise IP-100,2013-04-02 09:18:00,
2013-04-02 02:23:00,50.0,46.0,30.18,South,180,3.0,3.0,85,0.00,,,0.00,Rainwise IP-100,2013-04-02 09:23:00,
2013-04-02 02:28:00,50.0,46.0,30.18,SW,225,0.0,3.0,85,0.00,,,0.00,Rainwise IP-100,2013-04-02 09:28:00,
2013-04-02 02:33:00,50.0,46.0,30.18,SW,225,1.4,1.6,85,0.00,,,0.00,Rainwise IP-100,2013-04-02 09:33:00,
2013-04-02 02:38:00,49.9,46.0,30.18,South,180,0.0,2.1,85,0.00,,,0.00,Rainwise IP-100,2013-04-02 09:38:00,
2013-04-02 02:43:00,49.9,46.0,30.18,SW,225,1.2,1.6,85,0.00,,,0.00,Rainwise IP-100,2013-04-02 09:43:00,
2013-04-02 02:48:00,49.9,45.0,30.18,South,180,2.1,3.3,84,0.00,,,0.00,Rainwise IP-100,2013-04-02 09:48:00,
2013-04-02 02:53:00,49.8,45.0,30.18,SW,225,0.0,3.3,84,0.00,,,0.00,Rainwise IP-100,2013-04-02 09:53:00,
2013-04-02 02:58:00,49.8,45.0,30.18,SSW,202,1.4,2.8,84,0.00,,,0.00,Rainwise IP-100,2013-04-02 09:58:00,
2013-04-02 03:03:00,49.8,45.0,30.18,SSW,202,0.0,2.1,83,0.00,,,0.00,Rainwise IP-100,2013-04-02 10:03:00,
2013-04-02 03:09:00,49.8,45.0,30.18,SSW,202,0.0,1.4,83,0.00,,,0.00,Rainwise IP-100,2013-04-02 10:09:00,
2013-04-02 03:14:00,49.7,45.0,30.18,South,180,0.0,2.1,84,0.00,,,0.00,Rainwise IP-100,2013-04-02 10:14:00,
2013-04-02 03:19:00,49.7,45.0,30.18,South,180,0.0,0.0,84,0.00,,,0.00,Rainwise IP-100,2013-04-02 10:19:00,
2013-04-02 03:24:00,49.7,45.0,30.18,South,180,0.0,0.0,84,0.00,,,0.00,Rainwise IP-100,2013-04-02 10:24:00,
2013-04-02 03:29:00,49.6,45.0,30.18,South,180,0.0,0.0,84,0.00,,,0.00,Rainwise IP-100,2013-04-02 10:29:00,
2013-04-02 03:34:00,49.6,46.0,30.18,South,180,0.0,1.2,85,0.00,,,0.00,Rainwise IP-100,2013-04-02 10:34:00,
2013-04-02 03:39:00,49.6,46.0,30.18,South,180,0.0,2.1,85,0.00,,,0.00,Rainwise IP-100,2013-04-02 10:39:00,
2013-04-02 03:44:00,49.7,46.0,30.18,SSW,202,1.2,1.6,85,0.00,,,0.00,Rainwise IP-100,2013-04-02 10:44:00,
2013-04-02 03:49:00,49.7,46.0,30.18,SSW,202,1.4,1.6,85,0.00,,,0.00,Rainwise IP-100,2013-04-02 10:49:00,
2013-04-02 03:54:00,49.8,45.0,30.18,SSW,202,1.9,1.9,84,0.00,,,0.00,Rainwise IP-100,2013-04-02 10:54:00,
2013-04-02 03:59:00,49.8,45.0,30.18,SSW,202,1.9,2.1,84,0.00,,,0.00,Rainwise IP-100,2013-04-02 10:59:00,
2013-04-02 04:04:00,49.8,46.0,30.18,SSW,202,0.0,1.9,85,0.00,,,0.00,Rainwise IP-100,2013-04-02 11:04:00,
2013-04-02 04:09:00,49.8,46.0,30.18,WSW,247,0.0,1.4,85,0.00,,,0.00,Rainwise IP-100,2013-04-02 11:09:00,
2013-04-02 04:14:00,49.8,46.0,30.18,SSW,202,1.2,1.4,85,0.00,,,0.00,Rainwise IP-100,2013-04-02 11:14:00,
2013-04-02 04:19:00,49.8,46.0,30.18,SW,225,1.4,2.3,85,0.00,,,0.00,Rainwise IP-100,2013-04-02 11:19:00,
2013-04-02 04:24:00,49.8,46.0,30.18,SW,225,0.0,1.4,85,0.00,,,0.00,Rainwise IP-100,2013-04-02 11:24:00,
2013-04-02 04:29:00,49.8,46.0,30.18,SW,225,0.0,2.1,85,0.00,,,0.00,Rainwise IP-100,2013-04-02 11:29:00,
2013-04-02 04:34:00,49.8,46.0,30.18,SSW,202,0.0,1.6,85,0.00,,,0.00,Rainwise IP-100,2013-04-02 11:34:00,
2013-04-02 04:39:00,49.8,46.0,30.18,SSW,202,0.0,2.1,85,0.00,,,0.00,Rainwise IP-100,2013-04-02 11:39:00,
2013-04-02 04:44:00,49.8,46.0,30.18,SSW,202,0.0,1.2,85,0.00,,,0.00,Rainwise IP-100,2013-04-02 11:44:00,
2013-04-02 04:49:00,49.8,46.0,30.18,SW,225,1.2,1.9,85,0.00,,,0.00,Rainwise IP-100,2013-04-02 11:49:00,
2013-04-02 04:54:00,49.7,46.0,30.18,SSW,202,0.0,1.9,85,0.00,,,0.00,Rainwise IP-100,2013-04-02 11:54:00,
2013-04-02 04:59:00,49.7,46.0,30.18,SSW,202,0.0,1.2,85,0.00,,,0.00,Rainwise IP-100,2013-04-02 11:59:00,
2013-04-02 05:04:00,49.6,46.0,30.18,SSW,202,2.1,2.8,85,0.00,,,0.00,Rainwise IP-100,2013-04-02 12:04:00,
2013-04-02 05:09:00,49.6,46.0,30.18,SSW,202,0.0,3.0,86,0.00,,,0.00,Rainwise IP-100,2013-04-02 12:09:00,
2013-04-02 05:14:00,49.5,46.0,30.18,SSW,202,0.0,1.4,86,0.00,,,0.00,Rainwise IP-100,2013-04-02 12:14:00,
2013-04-02 05:19:00,49.5,46.0,30.18,SSW,202,0.0,0.0,86,0.00,,,0.00,Rainwise IP-100,2013-04-02 12:19:00,
2013-04-02 05:24:00,49.4,45.0,30.18,SSW,202,0.0,2.3,86,0.00,,,0.00,Rainwise IP-100,2013-04-02 12:24:00,
2013-04-02 05:29:00,49.4,45.0,30.18,SSW,202,0.0,2.3,86,0.00,,,0.00,Rainwise IP-100,2013-04-02 12:29:00,
2013-04-02 05:34:00,49.4,45.0,30.18,SSW,202,1.4,2.1,87,0.00,,,0.00,Rainwise IP-100,2013-04-02 12:34:00,
2013-04-02 05:39:00,49.4,45.0,30.18,SSW,202,0.0,2.1,87,0.00,,,0.00,Rainwise IP-100,2013-04-02 12:39:00,
2013-04-02 05:44:00,49.4,45.0,30.18,SW,225,0.0,2.3,87,0.00,,,0.00,Rainwise IP-100,2013-04-02 12:44:00,
2013-04-02 05:49:00,49.3,45.0,30.18,SSW,202,0.0,1.2,87,0.00,,,0.00,Rainwise IP-100,2013-04-02 12:49:00,
2013-04-02 05:54:00,49.3,45.0,30.18,SSW,202,0.0,2.6,87,0.00,,,0.00,Rainwise IP-100,2013-04-02 12:54:00,
2013-04-02 05:59:00,49.3,45.0,30.18,SSW,202,1.6,2.1,87,0.00,,,0.00,Rainwise IP-100,2013-04-02 12:59:00,
2013-04-02 06:04:00,49.2,45.0,30.18,SW,225,0.0,2.3,87,0.00,,,0.00,Rainwise IP-100,2013-04-02 13:04:00,
2013-04-02 06:09:00,49.2,45.0,30.18,SSW,202,0.0,2.1,87,0.00,,,0.00,Rainwise IP-100,2013-04-02 13:09:00,
2013-04-02 06:14:00,49.2,45.0,30.18,SSW,202,0.0,1.4,87,0.00,,,0.00,Rainwise IP-100,2013-04-02 13:14:00,
2013-04-02 06:19:00,49.2,45.0,30.18,SSW,202,0.0,1.6,86,0.00,,,0.00,Rainwise IP-100,2013-04-02 13:19:00,
2013-04-02 06:24:00,49.3,45.0,30.18,SSW,202,0.0,2.1,86,0.00,,,0.00,Rainwise IP-100,2013-04-02 13:24:00,
2013-04-02 06:29:00,49.4,45.0,30.18,WSW,247,1.6,2.3,86,0.00,,,0.00,Rainwise IP-100,2013-04-02 13:29:00,
2013-04-02 06:34:00,49.4,45.0,30.18,SSW,202,1.4,3.7,86,0.00,,,0.00,Rainwise IP-100,2013-04-02 13:34:00,
2013-04-02 06:39:00,49.5,46.0,30.18,SSW,202,0.0,2.8,86,0.00,,,0.00,Rainwise IP-100,2013-04-02 13:39:00,
2013-04-02 06:44:00,49.5,46.0,30.18,SSW,202,0.0,2.6,85,0.00,,,0.00,Rainwise IP-100,2013-04-02 13:44:00,
2013-04-02 06:49:00,49.4,45.0,30.18,SW,225,1.6,1.6,85,0.00,,,0.00,Rainwise IP-100,2013-04-02 13:49:00,
2013-04-02 06:55:00,49.4,45.0,30.18,SSW,202,0.0,2.6,86,0.00,,,0.00,Rainwise IP-100,2013-04-02 13:55:00,
2013-04-02 07:00:00,49.5,46.0,30.18,SSW,202,0.0,2.3,86,0.00,,,0.00,Rainwise IP-100,2013-04-02 14:00:00,
2013-04-02 07:05:00,49.4,45.0,30.18,SSW,202,0.0,2.8,85,0.00,,,0.00,Rainwise IP-100,2013-04-02 14:05:00,
2013-04-02 07:10:00,49.4,45.0,30.18,SW,225,0.0,3.3,85,0.00,,,0.00,Rainwise IP-100,2013-04-02 14:10:00,
2013-04-02 07:15:00,49.4,45.0,30.18,SSW,202,1.2,2.3,85,0.00,,,0.00,Rainwise IP-100,2013-04-02 14:15:00,
2013-04-02 07:20:00,49.5,46.0,30.18,SSW,202,0.0,1.9,85,0.00,,,0.00,Rainwise IP-100,2013-04-02 14:20:00,
2013-04-02 07:25:00,49.5,46.0,30.18,SSW,202,1.4,3.3,85,0.00,,,0.00,Rainwise IP-100,2013-04-02 14:25:00,
2013-04-02 07:30:00,49.5,46.0,30.18,SSW,202,0.0,2.3,85,0.00,,,0.00,Rainwise IP-100,2013-04-02 14:30:00,
2013-04-02 07:35:00,49.6,45.0,30.18,SSW,202,0.0,2.1,84,0.00,,,0.00,Rainwise IP-100,2013-04-02 14:35:00,
2013-04-02 07:40:00,49.6,45.0,30.18,SSW,202,0.0,2.1,84,0.00,,,0.00,Rainwise IP-100,2013-04-02 14:40:00,
2013-04-02 07:46:00,49.6,45.0,30.18,SSW,202,0.0,1.9,84,0.00,,,0.00,Rainwise IP-100,2013-04-02 14:46:00,
2013-04-02 07:51:00,49.6,45.0,30.18,SSW,202,0.0,4.0,84,0.00,,,0.00,Rainwise IP-100,2013-04-02 14:51:00,
2013-04-02 07:56:00,49.7,45.0,30.18,SW,225,1.4,1.4,84,0.00,,,0.00,Rainwise IP-100,2013-04-02 14:56:00,
2013-04-02 08:01:00,49.8,45.0,30.18,SSW,202,0.0,3.0,84,0.00,,,0.00,Rainwise IP-100,2013-04-02 15:01:00,
2013-04-02 08:06:00,49.9,45.0,30.18,SSW,202,0.0,2.6,83,0.00,,,0.00,Rainwise IP-100,2013-04-02 15:06:00,
2013-04-02 08:11:00,50.0,45.0,30.18,SSW,202,1.4,1.4,83,0.00,,,0.00,Rainwise IP-100,2013-04-02 15:11:00,
2013-04-02 08:16:00,50.0,45.0,30.19,SSW,202,0.0,1.4,83,0.00,,,0.00,Rainwise IP-100,2013-04-02 15:16:00,
2013-04-02 08:22:00,50.1,45.0,30.18,SSW,202,0.0,1.9,83,0.00,,,0.00,Rainwise IP-100,2013-04-02 15:22:00,
2013-04-02 08:27:00,50.1,45.0,30.18,SSE,157,0.0,2.6,83,0.00,,,0.00,Rainwise IP-100,2013-04-02 15:27:00,
2013-04-02 08:32:00,50.1,45.0,30.18,SSW,202,0.0,2.8,83,0.00,,,0.00,Rainwise IP-100,2013-04-02 15:32:00,
2013-04-02 08:37:00,50.1,45.0,30.19,SSW,202,0.0,2.1,83,0.00,,,0.00,Rainwise IP-100,2013-04-02 15:37:00,
2013-04-02 08:42:00,50.2,45.0,30.19,SSW,202,0.0,2.1,83,0.00,,,0.00,Rainwise IP-100,2013-04-02 15:42:00,
2013-04-02 08:47:00,50.4,45.0,30.19,South,180,0.0,2.8,82,0.00,,,0.00,Rainwise IP-100,2013-04-02 15:47:00,
2013-04-02 08:52:00,50.5,45.0,30.19,SW,225,0.0,3.0,82,0.00,,,0.00,Rainwise IP-100,2013-04-02 15:52:00,
2013-04-02 08:57:00,50.7,45.0,30.19,SSW,202,1.2,3.3,82,0.00,,,0.00,Rainwise IP-100,2013-04-02 15:57:00,
2013-04-02 09:02:00,50.8,46.0,30.19,SSW,202,0.0,3.0,82,0.00,,,0.00,Rainwise IP-100,2013-04-02 16:02:00,
2013-04-02 09:07:00,50.9,46.0,30.19,SSW,202,1.9,3.0,81,0.00,,,0.00,Rainwise IP-100,2013-04-02 16:07:00,
2013-04-02 09:12:00,50.9,46.0,30.18,SSW,202,0.0,3.0,81,0.00,,,0.00,Rainwise IP-100,2013-04-02 16:12:00,
2013-04-02 09:17:00,50.9,46.0,30.19,SSW,202,0.0,2.3,81,0.00,,,0.00,Rainwise IP-100,2013-04-02 16:17:00,
2013-04-02 09:22:00,50.9,46.0,30.19,South,180,1.9,2.6,81,0.00,,,0.00,Rainwise IP-100,2013-04-02 16:22:00,
2013-04-02 09:27:00,51.0,45.0,30.18,SW,225,0.0,3.3,80,0.00,,,0.00,Rainwise IP-100,2013-04-02 16:27:00,
2013-04-02 09:32:00,51.0,45.0,30.19,SW,225,0.0,2.6,80,0.00,,,0.00,Rainwise IP-100,2013-04-02 16:32:00,
2013-04-02 09:37:00,51.2,45.0,30.18,SSE,157,0.0,3.3,80,0.00,,,0.00,Rainwise IP-100,2013-04-02 16:37:00,
2013-04-02 09:42:00,51.5,46.0,30.19,South,180,0.0,2.6,80,0.00,,,0.00,Rainwise IP-100,2013-04-02 16:42:00,
2013-04-02 09:47:00,51.7,46.0,30.19,SSW,202,0.0,3.3,80,0.00,,,0.00,Rainwise IP-100,2013-04-02 16:47:00,
2013-04-02 09:52:00,51.8,46.0,30.19,SSE,157,0.0,2.1,79,0.00,,,0.00,Rainwise IP-100,2013-04-02 16:52:00,
2013-04-02 09:57:00,51.8,46.0,30.19,SSW,202,0.0,2.6,79,0.00,,,0.00,Rainwise IP-100,2013-04-02 16:57:00,
2013-04-02 10:02:00,51.8,46.0,30.19,SSW,202,2.1,3.3,79,0.00,,,0.00,Rainwise IP-100,2013-04-02 17:02:00,
2013-04-02 10:07:00,51.8,46.0,30.19,South,180,1.2,4.0,80,0.00,,,0.00,Rainwise IP-100,2013-04-02 17:07:00,
2013-04-02 10:12:00,51.8,46.0,30.19,SSW,202,1.6,2.8,80,0.00,,,0.00,Rainwise IP-100,2013-04-02 17:12:00,
2013-04-02 10:17:00,51.7,46.0,30.19,SSW,202,1.4,3.0,79,0.00,,,0.00,Rainwise IP-100,2013-04-02 17:17:00,
2013-04-02 10:22:00,51.8,46.0,30.19,SW,225,0.0,2.1,79,0.00,,,0.00,Rainwise IP-100,2013-04-02 17:22:00,
2013-04-02 10:27:00,52.1,46.0,30.19,South,180,0.0,2.6,79,0.00,,,0.00,Rainwise IP-100,2013-04-02 17:27:00,
2013-04-02 10:32:00,52.5,47.0,30.19,South,180,0.0,2.8,79,0.00,,,0.00,Rainwise IP-100,2013-04-02 17:32:00,
2013-04-02 10:37:00,52.7,46.0,30.19,SSW,202,1.2,3.3,78,0.00,,,0.00,Rainwise IP-100,2013-04-02 17:37:00,
2013-04-02 10:42:00,52.8,47.0,30.18,SSW,202,3.0,3.0,79,0.00,,,0.00,Rainwise IP-100,2013-04-02 17:42:00,
2013-04-02 10:47:00,52.8,47.0,30.20,SSW,202,3.5,3.5,80,0.00,,,0.00,Rainwise IP-100,2013-04-02 17:47:00,
2013-04-02 10:52:00,52.9,47.0,30.19,SSW,202,0.0,3.5,80,0.00,,,0.00,Rainwise IP-100,2013-04-02 17:52:00,
2013-04-02 10:57:00,53.1,47.0,30.19,SSW,202,1.4,2.6,79,0.00,,,0.00,Rainwise IP-100,2013-04-02 17:57:00,
2013-04-02 11:02:00,53.3,47.0,30.19,South,180,2.1,4.4,78,0.00,,,0.00,Rainwise IP-100,2013-04-02 18:02:00,
2013-04-02 11:07:00,53.5,47.0,30.19,SW,225,2.1,3.0,77,0.00,,,0.00,Rainwise IP-100,2013-04-02 18:07:00,
2013-04-02 11:12:00,53.9,47.5,30.19,SSW,202,0.0,3.3,78,0.00,,,0.00,Rainwise IP-100,2013-04-02 18:12:00,
2013-04-02 11:17:00,54.2,48.0,30.19,SSW,202,0.0,3.5,80,0.00,,,0.00,Rainwise IP-100,2013-04-02 18:17:00,
2013-04-02 11:23:00,54.3,48.0,30.19,SSW,202,0.0,3.0,80,0.00,,,0.00,Rainwise IP-100,2013-04-02 18:23:00,
2013-04-02 11:28:00,54.2,48.0,30.19,SSW,202,0.0,1.9,80,0.00,,,0.00,Rainwise IP-100,2013-04-02 18:28:00,
2013-04-02 11:33:00,54.1,48.0,30.19,SW,225,0.0,4.0,80,0.00,,,0.00,Rainwise IP-100,2013-04-02 18:33:00,
2013-04-02 11:38:00,53.9,47.5,30.19,SW,225,0.0,3.0,79,0.00,,,0.00,Rainwise IP-100,2013-04-02 18:38:00,
2013-04-02 11:43:00,53.9,47.5,30.19,SSW,202,1.6,3.3,79,0.00,,,0.00,Rainwise IP-100,2013-04-02 18:43:00,
2013-04-02 11:48:00,53.7,47.0,30.19,South,180,0.0,3.5,78,0.00,,,0.00,Rainwise IP-100,2013-04-02 18:48:00,
2013-04-02 11:53:00,53.7,47.0,30.19,SSW,202,0.0,1.6,78,0.00,,,0.00,Rainwise IP-100,2013-04-02 18:53:00,
2013-04-02 11:58:00,53.8,47.5,30.19,SSW,202,1.2,3.7,78,0.00,,,0.00,Rainwise IP-100,2013-04-02 18:58:00,
2013-04-02 12:03:00,53.8,47.0,30.19,SW,225,2.6,2.8,77,0.00,,,0.00,Rainwise IP-100,2013-04-02 19:03:00,
2013-04-02 12:08:00,53.7,46.0,30.19,SSW,202,0.0,3.7,76,0.00,,,0.00,Rainwise IP-100,2013-04-02 19:08:00,
2013-04-02 12:13:00,53.7,47.0,30.19,SSW,202,0.0,0.0,77,0.00,,,0.00,Rainwise IP-100,2013-04-02 19:13:00,
2013-04-02 12:18:00,53.7,47.0,30.19,WSW,247,1.6,3.5,77,0.00,,,0.00,Rainwise IP-100,2013-04-02 19:18:00,
2013-04-02 12:23:00,53.6,47.0,30.19,SSW,202,1.6,3.5,77,0.00,,,0.00,Rainwise IP-100,2013-04-02 19:23:00,
2013-04-02 12:29:00,53.5,46.0,30.19,SW,225,2.6,4.4,76,0.00,,,0.00,Rainwise IP-100,2013-04-02 19:29:00,
2013-04-02 12:34:00,53.4,46.0,30.19,SW,225,1.4,2.8,76,0.00,,,0.00,Rainwise IP-100,2013-04-02 19:34:00,
2013-04-02 12:39:00,53.5,46.0,30.19,SW,225,1.6,3.5,76,0.00,,,0.00,Rainwise IP-100,2013-04-02 19:39:00,
2013-04-02 12:44:00,53.5,46.0,30.19,SW,225,1.6,3.0,76,0.00,,,0.00,Rainwise IP-100,2013-04-02 19:44:00,
2013-04-02 12:49:00,53.5,46.0,30.19,SW,225,1.6,3.5,76,0.00,,,0.00,Rainwise IP-100,2013-04-02 19:49:00,
2013-04-02 12:54:00,53.6,46.0,30.18,SSW,202,3.0,4.2,76,0.00,,,0.00,Rainwise IP-100,2013-04-02 19:54:00,
2013-04-02 12:59:00,53.6,46.0,30.19,SSW,202,1.4,4.0,76,0.00,,,0.00,Rainwise IP-100,2013-04-02 19:59:00,
2013-04-02 13:04:00,53.6,46.0,30.19,SSW,202,0.0,2.8,76,0.00,,,0.00,Rainwise IP-100,2013-04-02 20:04:00,
2013-04-02 13:09:00,53.8,47.0,30.19,SSW,202,1.2,2.1,77,0.00,,,0.00,Rainwise IP-100,2013-04-02 20:09:00,
2013-04-02 13:14:00,53.9,47.0,30.19,SSW,202,0.0,3.3,77,0.00,,,0.00,Rainwise IP-100,2013-04-02 20:14:00,
2013-04-02 13:19:00,53.9,47.0,30.19,SSW,202,1.4,3.3,77,0.00,,,0.00,Rainwise IP-100,2013-04-02 20:19:00,
2013-04-02 13:24:00,54.1,47.0,30.19,SW,225,1.2,2.1,76,0.00,,,0.00,Rainwise IP-100,2013-04-02 20:24:00,
2013-04-02 13:29:00,54.2,47.0,30.19,SSW,202,0.0,2.1,77,0.00,,,0.00,Rainwise IP-100,2013-04-02 20:29:00,
2013-04-02 13:34:00,54.2,47.0,30.19,SSW,202,1.4,3.3,76,0.00,,,0.00,Rainwise IP-100,2013-04-02 20:34:00,
2013-04-02 13:39:00,54.2,47.0,30.19,SSW,202,1.4,3.3,76,0.00,,,0.00,Rainwise IP-100,2013-04-02 20:39:00,
2013-04-02 13:44:00,54.3,47.5,30.18,SSW,202,0.0,2.6,76,0.00,,,0.00,Rainwise IP-100,2013-04-02 20:44:00,
2013-04-02 13:49:00,54.4,47.5,30.19,South,180,0.0,2.8,77,0.00,,,0.00,Rainwise IP-100,2013-04-02 20:49:00,
2013-04-02 13:54:00,54.6,48.0,30.19,SSW,202,1.4,2.3,78,0.00,,,0.00,Rainwise IP-100,2013-04-02 20:54:00,
2013-04-02 13:59:00,54.8,48.0,30.19,SW,225,0.0,2.6,78,0.00,,,0.00,Rainwise IP-100,2013-04-02 20:59:00,
2013-04-02 14:04:00,54.9,49.0,30.18,SSW,202,0.0,1.2,79,0.00,,,0.00,Rainwise IP-100,2013-04-02 21:04:00,
2013-04-02 14:10:00,54.9,48.0,30.19,SW,225,0.0,3.0,78,0.00,,,0.00,Rainwise IP-100,2013-04-02 21:10:00,
2013-04-02 14:15:00,54.9,47.5,30.19,SW,225,1.4,3.7,76,0.00,,,0.00,Rainwise IP-100,2013-04-02 21:15:00,
2013-04-02 14:20:00,55.0,48.0,30.19,SSW,202,0.0,2.1,77,0.00,,,0.00,Rainwise IP-100,2013-04-02 21:20:00,
2013-04-02 14:25:00,55.0,47.5,30.19,SSW,202,0.0,2.6,76,0.00,,,0.00,Rainwise IP-100,2013-04-02 21:25:00,
2013-04-02 14:30:00,55.0,47.5,30.19,SW,225,0.0,5.1,75,0.00,,,0.00,Rainwise IP-100,2013-04-02 21:30:00,
2013-04-02 14:35:00,55.1,47.5,30.19,SSW,202,1.4,3.0,75,0.00,,,0.00,Rainwise IP-100,2013-04-02 21:35:00,
2013-04-02 14:40:00,55.2,47.5,30.19,SW,225,0.0,2.8,75,0.00,,,0.00,Rainwise IP-100,2013-04-02 21:40:00,
2013-04-02 14:45:00,55.3,47.5,30.19,South,180,0.0,1.9,75,0.00,,,0.00,Rainwise IP-100,2013-04-02 21:45:00,
2013-04-02 14:50:00,55.3,47.5,30.18,SSW,202,1.6,3.3,74,0.00,,,0.00,Rainwise IP-100,2013-04-02 21:50:00,
2013-04-02 14:55:00,55.3,47.5,30.18,SSW,202,0.0,2.8,74,0.00,,,0.00,Rainwise IP-100,2013-04-02 21:55:00,
2013-04-02 15:00:00,55.4,47.5,30.18,SSW,202,1.9,3.7,74,0.00,,,0.00,Rainwise IP-100,2013-04-02 22:00:00,
2013-04-02 15:05:00,55.5,47.5,30.18,SW,225,0.0,4.0,74,0.00,,,0.00,Rainwise IP-100,2013-04-02 22:05:00,
2013-04-02 15:10:00,55.7,47.5,30.18,South,180,0.0,3.5,73,0.00,,,0.00,Rainwise IP-100,2013-04-02 22:10:00,
2013-04-02 15:15:00,55.7,47.5,30.18,South,180,1.2,4.4,74,0.00,,,0.00,Rainwise IP-100,2013-04-02 22:15:00,
2013-04-02 15:20:00,55.8,47.5,30.18,SSW,202,1.2,4.9,74,0.00,,,0.00,Rainwise IP-100,2013-04-02 22:20:00,
2013-04-02 15:25:00,56.1,47.5,30.18,SSW,202,1.9,3.3,73,0.00,,,0.00,Rainwise IP-100,2013-04-02 22:25:00,
2013-04-02 15:30:00,56.4,48.0,30.18,SSW,202,1.2,3.3,73,0.00,,,0.00,Rainwise IP-100,2013-04-02 22:30:00,
2013-04-02 15:35:00,56.8,48.0,30.18,SSW,202,2.3,3.0,72,0.00,,,0.00,Rainwise IP-100,2013-04-02 22:35:00,
2013-04-02 15:40:00,57.2,48.0,30.17,SSW,202,1.2,4.9,72,0.00,,,0.00,Rainwise IP-100,2013-04-02 22:40:00,
2013-04-02 15:45:00,57.6,48.0,30.17,SSW,202,0.0,3.3,71,0.00,,,0.00,Rainwise IP-100,2013-04-02 22:45:00,
2013-04-02 15:50:00,57.9,49.0,30.17,SSW,202,0.0,4.0,71,0.00,,,0.00,Rainwise IP-100,2013-04-02 22:50:00,
2013-04-02 15:55:00,58.0,50.0,30.18,WSW,247,0.0,3.7,73,0.00,,,0.00,Rainwise IP-100,2013-04-02 22:55:00,
2013-04-02 16:00:00,57.7,50.0,30.17,South,180,0.0,2.1,74,0.00,,,0.00,Rainwise IP-100,2013-04-02 23:00:00,
2013-04-02 16:05:00,57.7,50.0,30.18,SSW,202,1.2,2.8,75,0.00,,,0.00,Rainwise IP-100,2013-04-02 23:05:00,
2013-04-02 16:10:00,57.8,50.0,30.18,South,180,4.7,5.1,73,0.00,,,0.00,Rainwise IP-100,2013-04-02 23:10:00,
2013-04-02 16:15:00,57.7,49.0,30.17,SSW,202,1.4,4.7,72,0.00,,,0.00,Rainwise IP-100,2013-04-02 23:15:00,
2013-04-02 16:20:00,57.5,49.0,30.17,WSW,247,0.0,4.0,72,0.00,,,0.00,Rainwise IP-100,2013-04-02 23:20:00,
2013-04-02 16:25:00,57.4,49.0,30.17,SW,225,2.6,3.3,73,0.00,,,0.00,Rainwise IP-100,2013-04-02 23:25:00,
2013-04-02 16:30:00,57.3,49.0,30.17,SSE,157,2.1,3.7,72,0.00,,,0.00,Rainwise IP-100,2013-04-02 23:30:00,
2013-04-02 16:35:00,57.4,49.0,30.17,SW,225,0.0,3.0,73,0.00,,,0.00,Rainwise IP-100,2013-04-02 23:35:00,
2013-04-02 16:40:00,57.3,50.0,30.16,SSW,202,1.2,3.7,74,0.00,,,0.00,Rainwise IP-100,2013-04-02 23:40:00,
2013-04-02 16:45:00,57.2,48.0,30.17,SSW,202,0.0,3.0,72,0.00,,,0.00,Rainwise IP-100,2013-04-02 23:45:00,
2013-04-02 16:50:00,57.0,48.0,30.17,South,180,1.6,3.5,72,0.00,,,0.00,Rainwise IP-100,2013-04-02 23:50:00,
2013-04-02 16:55:00,56.9,48.0,30.16,SSW,202,4.2,4.2,72,0.00,,,0.00,Rainwise IP-100,2013-04-02 23:55:00,
2013-04-02 17:00:00,56.7,47.5,30.16,SSW,202,0.0,4.9,72,0.00,,,0.00,Rainwise IP-100,2013-04-03 00:00:00,
2013-04-02 17:05:00,56.5,48.0,30.17,SW,225,0.0,3.3,73,0.00,,,0.00,Rainwise IP-100,2013-04-03 00:05:00,
2013-04-02 17:10:00,56.4,48.0,30.17,SSW,202,0.0,5.6,74,0.00,,,0.00,Rainwise IP-100,2013-04-03 00:10:00,
2013-04-02 17:15:00,56.4,48.0,30.16,SSW,202,2.3,4.0,74,0.00,,,0.00,Rainwise IP-100,2013-04-03 00:15:00,
2013-04-02 17:20:00,56.4,48.0,30.16,South,180,0.0,3.0,73,0.00,,,0.00,Rainwise IP-100,2013-04-03 00:20:00,
2013-04-02 17:25:00,56.5,48.0,30.16,SSW,202,0.0,1.4,73,0.00,,,0.00,Rainwise IP-100,2013-04-03 00:25:00,
2013-04-02 17:30:00,56.5,48.0,30.16,WSW,247,0.0,2.3,73,0.00,,,0.00,Rainwise IP-100,2013-04-03 00:30:00,
2013-04-02 17:35:00,56.4,48.0,30.16,SSW,202,1.2,3.5,74,0.00,,,0.00,Rainwise IP-100,2013-04-03 00:35:00,
2013-04-02 17:40:00,56.3,48.0,30.16,SSW,202,1.2,2.3,74,0.00,,,0.00,Rainwise IP-100,2013-04-03 00:40:00,
2013-04-02 17:45:00,56.3,48.0,30.16,SSW,202,1.2,2.1,74,0.00,,,0.00,Rainwise IP-100,2013-04-03 00:45:00,
2013-04-02 17:50:00,56.3,48.0,30.16,South,180,0.0,2.1,74,0.00,,,0.00,Rainwise IP-100,2013-04-03 00:50:00,
2013-04-02 17:55:00,56.2,47.5,30.16,SSW,202,1.9,3.7,74,0.00,,,0.00,Rainwise IP-100,2013-04-03 00:55:00,
2013-04-02 18:00:00,56.1,47.5,30.16,SW,225,0.0,2.3,73,0.00,,,0.00,Rainwise IP-100,2013-04-03 01:00:00,
2013-04-02 18:05:00,56.0,47.5,30.16,SSW,202,0.0,3.3,73,0.00,,,0.00,Rainwise IP-100,2013-04-03 01:05:00,
2013-04-02 18:10:00,55.9,47.5,30.15,SSW,202,1.4,3.5,73,0.00,,,0.00,Rainwise IP-100,2013-04-03 01:10:00,
2013-04-02 18:15:00,55.8,47.5,30.15,SSW,202,1.2,3.7,73,0.00,,,0.00,Rainwise IP-100,2013-04-03 01:15:00,
2013-04-02 18:20:00,55.7,47.5,30.15,SSW,202,0.0,3.7,73,0.00,,,0.00,Rainwise IP-100,2013-04-03 01:20:00,
2013-04-02 18:25:00,55.7,47.5,30.16,SSW,202,2.1,3.7,74,0.00,,,0.00,Rainwise IP-100,2013-04-03 01:25:00,
2013-04-02 18:30:00,55.6,47.5,30.15,SW,225,0.0,2.6,74,0.00,,,0.00,Rainwise IP-100,2013-04-03 01:30:00,
2013-04-02 18:35:00,55.6,47.5,30.15,SSW,202,0.0,3.7,74,0.00,,,0.00,Rainwise IP-100,2013-04-03 01:35:00,
2013-04-02 18:40:00,55.5,47.5,30.15,South,180,1.2,2.3,74,0.00,,,0.00,Rainwise IP-100,2013-04-03 01:40:00,
2013-04-02 18:45:00,55.4,47.5,30.15,SW,225,1.2,2.8,75,0.00,,,0.00,Rainwise IP-100,2013-04-03 01:45:00,
2013-04-02 18:50:00,55.4,47.5,30.16,SW,225,1.6,2.8,75,0.00,,,0.00,Rainwise IP-100,2013-04-03 01:50:00,
2013-04-02 18:55:00,55.4,47.5,30.15,SW,225,0.0,2.6,75,0.00,,,0.00,Rainwise IP-100,2013-04-03 01:55:00,
2013-04-02 19:01:00,55.4,47.5,30.15,SW,225,0.0,2.6,75,0.00,,,0.00,Rainwise IP-100,2013-04-03 02:01:00,
2013-04-02 19:06:00,55.4,47.5,30.15,SW,225,0.0,2.1,75,0.00,,,0.00,Rainwise IP-100,2013-04-03 02:06:00,
2013-04-02 19:11:00,55.4,47.5,30.15,South,180,1.9,1.9,75,0.00,,,0.00,Rainwise IP-100,2013-04-03 02:11:00,
2013-04-02 19:16:00,55.3,47.5,30.15,SSW,202,1.2,3.0,75,0.00,,,0.00,Rainwise IP-100,2013-04-03 02:16:00,
2013-04-02 19:21:00,55.2,47.5,30.15,SSW,202,0.0,1.6,75,0.00,,,0.00,Rainwise IP-100,2013-04-03 02:21:00,
2013-04-02 19:26:00,55.1,47.5,30.15,SSW,202,0.0,0.0,75,0.00,,,0.00,Rainwise IP-100,2013-04-03 02:26:00,
2013-04-02 19:31:00,54.9,49.0,30.15,SSW,202,0.0,0.0,80,0.00,,,0.00,Rainwise IP-100,2013-04-03 02:31:00,
2013-04-02 19:36:00,54.7,50.5,30.15,SSW,202,0.0,0.0,85,0.00,,,0.00,Rainwise IP-100,2013-04-03 02:36:00,
2013-04-02 19:41:00,54.5,50.5,30.14,SSW,202,0.0,0.0,85,0.00,,,0.00,Rainwise IP-100,2013-04-03 02:41:00,
2013-04-02 19:46:00,54.1,49.0,30.15,SSW,202,0.0,0.0,83,0.00,,,0.00,Rainwise IP-100,2013-04-03 02:46:00,
2013-04-02 19:51:00,53.7,48.0,30.16,SSW,202,0.0,0.0,82,0.00,,,0.00,Rainwise IP-100,2013-04-03 02:51:00,
2013-04-02 19:56:00,53.5,48.0,30.15,SSW,202,0.0,0.0,83,0.00,,,0.00,Rainwise IP-100,2013-04-03 02:56:00,
2013-04-02 20:02:00,53.2,48.0,30.16,SSW,202,0.0,0.0,85,0.00,,,0.00,Rainwise IP-100,2013-04-03 03:02:00,
2013-04-02 20:07:00,53.0,48.0,30.16,SSW,202,0.0,0.0,85,0.00,,,0.00,Rainwise IP-100,2013-04-03 03:07:00,
2013-04-02 20:12:00,52.8,48.0,30.16,SSW,202,0.0,0.0,85,0.00,,,0.00,Rainwise IP-100,2013-04-03 03:12:00,
2013-04-02 20:17:00,52.5,48.0,30.16,SSW,202,0.0,0.0,84,0.00,,,0.00,Rainwise IP-100,2013-04-03 03:17:00,
2013-04-02 20:22:00,52.3,47.5,30.16,SSW,202,0.0,0.0,84,0.00,,,0.00,Rainwise IP-100,2013-04-03 03:22:00,
2013-04-02 20:27:00,52.1,47.5,30.16,SSW,202,0.0,0.0,85,0.00,,,0.00,Rainwise IP-100,2013-04-03 03:27:00,
2013-04-02 20:32:00,51.9,48.0,30.17,SSW,202,0.0,0.0,86,0.00,,,0.00,Rainwise IP-100,2013-04-03 03:32:00,
2013-04-02 20:37:00,51.8,47.5,30.16,SSW,202,0.0,0.0,85,0.00,,,0.00,Rainwise IP-100,2013-04-03 03:37:00,
2013-04-02 20:42:00,51.7,47.5,30.16,SSW,202,0.0,0.0,85,0.00,,,0.00,Rainwise IP-100,2013-04-03 03:42:00,
2013-04-02 20:47:00,51.6,48.0,30.17,SSW,202,0.0,0.0,86,0.00,,,0.00,Rainwise IP-100,2013-04-03 03:47:00,
2013-04-02 20:52:00,51.4,47.5,30.17,SSW,202,0.0,0.0,86,0.00,,,0.00,Rainwise IP-100,2013-04-03 03:52:00,
2013-04-02 20:57:00,51.3,47.5,30.18,SSW,202,0.0,0.0,87,0.00,,,0.00,Rainwise IP-100,2013-04-03 03:57:00,
2013-04-02 21:00:00,51.3,47.5,30.18,SSW,202,0.0,0.0,87,0.00,,,0.00,Rainwise IP-100,2013-04-03 04:00:00,
2013-04-02 21:02:00,51.2,47.5,30.17,SSW,202,0.0,0.0,87,0.00,,,0.00,Rainwise IP-100,2013-04-03 04:02:00,
2013-04-02 21:07:00,51.1,47.5,30.18,SSW,202,0.0,0.0,86,0.00,,,0.00,Rainwise IP-100,2013-04-03 04:07:00,
2013-04-02 21:09:00,51.0,47.5,30.17,SSW,202,0.0,0.0,86,0.00,,,0.00,Rainwise IP-100,2013-04-03 04:09:00,
2013-04-02 21:13:00,51.0,47.5,30.18,SSW,202,0.0,0.0,88,0.00,,,0.00,Rainwise IP-100,2013-04-03 04:13:00,
2013-04-02 21:18:00,50.9,47.5,30.18,SSW,202,0.0,0.0,88,0.00,,,0.00,Rainwise IP-100,2013-04-03 04:18:00,
2013-04-02 21:23:00,50.8,47.5,30.18,SSW,202,0.0,0.0,87,0.00,,,0.00,Rainwise IP-100,2013-04-03 04:23:00,
2013-04-02 21:28:00,50.8,47.5,30.18,SSW,202,0.0,0.0,88,0.00,,,0.00,Rainwise IP-100,2013-04-03 04:28:00,
2013-04-02 21:33:00,50.7,47.5,30.18,SSW,202,0.0,0.0,89,0.00,,,0.00,Rainwise IP-100,2013-04-03 04:33:00,
2013-04-02 21:38:00,50.5,47.5,30.18,SSW,202,0.0,0.0,89,0.00,,,0.00,Rainwise IP-100,2013-04-03 04:38:00,
2013-04-02 21:43:00,50.4,47.5,30.18,SSW,202,0.0,0.0,90,0.00,,,0.00,Rainwise IP-100,2013-04-03 04:43:00,
2013-04-02 21:48:00,50.2,47.5,30.18,SSW,202,0.0,0.0,91,0.00,,,0.00,Rainwise IP-100,2013-04-03 04:48:00,
2013-04-02 21:53:00,50.1,47.0,30.18,SSW,202,0.0,0.0,90,0.00,,,0.00,Rainwise IP-100,2013-04-03 04:53:00,
2013-04-02 21:58:00,50.0,47.0,30.18,SSW,202,0.0,0.0,89,0.00,,,0.00,Rainwise IP-100,2013-04-03 04:58:00,
2013-04-02 22:03:00,50.1,47.0,30.18,SSW,202,0.0,0.0,89,0.00,,,0.00,Rainwise IP-100,2013-04-03 05:03:00,
2013-04-02 22:08:00,50.0,47.0,30.18,SSW,202,0.0,0.0,88,0.00,,,0.00,Rainwise IP-100,2013-04-03 05:08:00,
2013-04-02 22:13:00,50.0,46.0,30.18,SSW,202,0.0,0.0,87,0.00,,,0.00,Rainwise IP-100,2013-04-03 05:13:00,
2013-04-02 22:18:00,50.1,46.0,30.18,SSW,202,0.0,0.0,86,0.00,,,0.00,Rainwise IP-100,2013-04-03 05:18:00,
2013-04-02 22:23:00,50.1,46.0,30.18,SSW,202,0.0,0.0,86,0.00,,,0.00,Rainwise IP-100,2013-04-03 05:23:00,
2013-04-02 22:28:00,50.2,47.0,30.18,SSW,202,0.0,0.0,88,0.00,,,0.00,Rainwise IP-100,2013-04-03 05:28:00,
2013-04-02 22:33:00,50.1,47.0,30.18,SSW,202,0.0,0.0,89,0.00,,,0.00,Rainwise IP-100,2013-04-03 05:33:00,
2013-04-02 22:38:00,50.1,47.0,30.18,SSW,202,0.0,0.0,89,0.00,,,0.00,Rainwise IP-100,2013-04-03 05:38:00,
2013-04-02 22:43:00,50.1,46.0,30.18,SSW,202,0.0,0.0,87,0.00,,,0.00,Rainwise IP-100,2013-04-03 05:43:00,
2013-04-02 22:48:00,50.1,46.0,30.18,SSW,202,0.0,0.0,87,0.00,,,0.00,Rainwise IP-100,2013-04-03 05:48:00,
2013-04-02 22:53:00,50.1,46.0,30.18,SSW,202,0.0,0.0,87,0.00,,,0.00,Rainwise IP-100,2013-04-03 05:53:00,
2013-04-02 22:58:00,50.1,46.0,30.18,SSW,202,0.0,0.0,86,0.00,,,0.00,Rainwise IP-100,2013-04-03 05:58:00,
2013-04-02 23:03:00,50.0,46.0,30.18,SSW,202,0.0,0.0,87,0.00,,,0.00,Rainwise IP-100,2013-04-03 06:03:00,
2013-04-02 23:08:00,50.0,47.0,30.18,SSW,202,0.0,0.0,88,0.00,,,0.00,Rainwise IP-100,2013-04-03 06:08:00,
2013-04-02 23:13:00,50.0,47.0,30.18,SSW,202,0.0,0.0,88,0.00,,,0.00,Rainwise IP-100,2013-04-03 06:13:00,
2013-04-02 23:18:00,49.9,47.0,30.18,SSW,202,0.0,0.0,88,0.00,,,0.00,Rainwise IP-100,2013-04-03 06:18:00,
2013-04-02 23:23:00,49.9,47.0,30.18,SSW,202,0.0,0.0,89,0.00,,,0.00,Rainwise IP-100,2013-04-03 06:23:00,
2013-04-02 23:28:00,49.7,47.0,30.18,SSW,202,0.0,0.0,88,0.00,,,0.00,Rainwise IP-100,2013-04-03 06:28:00,
2013-04-02 23:33:00,49.5,47.0,30.18,SSW,202,0.0,0.0,88,0.00,,,0.00,Rainwise IP-100,2013-04-03 06:33:00,
2013-04-02 23:38:00,49.4,46.0,30.18,SSW,202,0.0,0.0,89,0.00,,,0.00,Rainwise IP-100,2013-04-03 06:38:00,
2013-04-02 23:43:00,49.3,46.0,30.18,SSW,202,0.0,0.0,89,0.00,,,0.00,Rainwise IP-100,2013-04-03 06:43:00,
2013-04-02 23:48:00,49.2,46.0,30.18,SSW,202,0.0,0.0,89,0.00,,,0.00,Rainwise IP-100,2013-04-03 06:48:00,
2013-04-02 23:53:00,49.1,46.0,30.18,SSW,202,0.0,0.0,88,0.00,,,0.00,Rainwise IP-100,2013-04-03 06:53:00,
2013-04-02 23:58:00,49.1,46.0,30.18,SSW,202,0.0,0.0,88,0.00,,,0.00,Rainwise IP-100,2013-04-03 06:58:00,